Flag for Belarus Weather past 2 weeks in Minsk, Belarus

Now
50 °F

Mostly cloudy.


Feels Like: 48 °F
Forecast: 45 / 63 °F
Wind: 6 mph from North

Location: Loshitsa / Minsk International 1

Current Time: May 22, 2015 at 8:49:20 PM

Latest Report: May 22, 2015 at 8:30 PM


Visibility: N/A

Pressure: 30.18 "Hg

Humidity: 94%

Dew point: 48 °F

Location of MinskLocation

Historic Weather in Minsk — Graph

°F

Minsk temperature yesterday

Maximum temperature yesterday: 77 °F (at 1:00 PM)
Minimum temperature yesterday: 59 °F (at 7:00 AM)
Average temperature yesterday: 70 °F

Past Weeks' High & Low Weather Summary

 TemperatureHumidityPressure
High79 °F (May 20, 2:00 PM)100% (May 7, 7:00 PM)30.30 "Hg (May 7, 7:00 PM)
Low41 °F (May 16, 7:30 AM)34% (May 10, 2:00 PM)29.68 "Hg (May 14, 5:00 PM)
Average56 °F64%29.95 "Hg
* Reported May 7 7:00 PM — May 22 7:30 PM, Minsk, Weather by CustomWeather, © 2015

Note: Actual official high and low records may vary slightly from our data, if they occured in-between our weather recording intervals... More about our weather records

Advertising

Minsk weather history for previous 24 hours

 ConditionsComfort  
Time TempWeatherWind HumidityBarometerVisibility
7:30 PM
Fri, May 22
50 °FMostly cloudy.6 mph94%30.18 "HgN/A
7:00 PM50 °FMostly cloudy.8 mph94%30.18 "HgN/A
6:30 PM50 °FOvercast.10 mph94%30.18 "HgN/A
6:00 PM50 °FOvercast.10 mph94%30.18 "HgN/A
5:30 PM48 °FOvercast.10 mph94%30.18 "Hg4 mi
5:00 PM48 °FOvercast.10 mph94%30.18 "Hg4 mi
4:30 PM48 °FSprinkles. Fog.10 mph94%30.18 "Hg3 mi
4:00 PM48 °FSprinkles. Fog.13 mph94%30.18 "Hg3 mi
3:30 PM48 °FSprinkles. Fog.13 mph100%30.18 "Hg3 mi
3:00 PM48 °FSprinkles. Fog.13 mph100%30.18 "Hg3 mi
2:30 PM50 °FSprinkles. Fog.10 mph100%30.18 "Hg3 mi
2:00 PM50 °FSprinkles. Fog.10 mph100%30.18 "Hg3 mi
1:30 PM50 °FSprinkles. Fog.10 mph94%30.18 "Hg3 mi
1:00 PM50 °FSprinkles. Fog.10 mph94%30.18 "Hg3 mi
12:30 PM50 °FSprinkles. Fog.10 mph100%30.18 "Hg3 mi
12:00 PM50 °FSprinkles. Fog.10 mph100%30.18 "Hg3 mi
11:30 AM50 °FSprinkles. Fog.10 mph100%30.15 "Hg2 mi
11:00 AM50 °FSprinkles. Fog.8 mph100%30.15 "Hg2 mi
10:30 AM50 °FSprinkles. Fog.8 mph100%30.15 "Hg2 mi
10:00 AM50 °FSprinkles. Fog.10 mph100%30.15 "Hg2 mi
9:30 AM50 °FSprinkles. Low clouds.8 mph100%30.15 "HgN/A
9:00 AM50 °FLow clouds.8 mph100%30.15 "HgN/A
8:30 AM50 °FLow clouds.6 mph100%30.15 "HgN/A
8:00 AM50 °FLow clouds.6 mph100%30.15 "HgN/A
7:30 AM50 °FLow clouds.6 mph100%30.15 "HgN/A
7:00 AM50 °FSprinkles. Fog.8 mph100%30.15 "Hg3 mi
8:30 PM
Thu, May 21
64 °FPartly sunny.10 mph78%30.07 "HgN/A
8:00 PM64 °FBroken clouds.13 mph78%30.04 "HgN/A
Weather by CustomWeather, © 2015

See weather overviewHow to use our weather pages